Washington Pass
Washington Pass
Latest observation 09/03 17:00 PDT
| Time (PDT) | Temp °F 6680' | Temp °F 5450' | RH % 6680' | RH % 5450' | Min mph 6680' | Spd mph 6680' | Gust mph 6680' | Dir ° 6680' | Pcp1 in 5450' | PcpSum in 5450' | SnoHt in 5450' | EqTemp °F 5450' |
|---|---|---|---|---|---|---|---|---|---|---|---|---|
| 09/03 17:00 | 37 | 43 | 85 | 76 | 0 | 4 | 13 | 39 | 0.00 | 0.25 | 4.6 | 46 |
| 09/03 16:00 | 41 | 45 | 74 | 70 | 0 | 3 | 6 | 229 | 0.00 | 0.25 | 4.5 | 48 |
| 09/03 15:00 | 42 | 46 | 66 | 58 | 2 | 4 | 7 | 231 | 0.00 | 0.25 | 4.6 | 51 |
| 09/03 14:00 | 44 | 47 | 61 | 52 | 1 | 7 | 11 | 182 | 0.00 | 0.25 | 4.4 | 52 |
| 09/03 13:00 | 45 | 46 | 52 | 55 | 4 | 9 | 14 | 207 | 0.00 | 0.25 | 4.5 | 53 |
| 09/03 12:00 | 46 | 49 | 57 | 48 | 5 | 10 | 14 | 217 | 0.00 | 0.25 | 4.4 | 60 |
| 09/03 11:00 | 42 | 45 | 69 | 69 | 4 | 8 | 12 | 210 | 0.00 | 0.25 | 4.5 | 51 |
| 09/03 10:00 | 39 | 40 | 79 | 74 | 4 | 7 | 11 | 227 | 0.00 | 0.25 | 4.5 | 39 |
| 09/03 09:00 | 36 | 36 | 83 | 86 | 3 | 7 | 11 | 227 | 0.00 | 0.25 | 5.2 | 35 |
| 09/03 08:00 | 33 | 34 | 91 | 94 | 4 | 8 | 11 | 246 | 0.00 | 0.25 | 5.1 | 34 |
| 09/03 07:00 | 32 | 35 | 99 | 94 | 9 | 12 | 15 | 237 | 0.00 | 0.25 | 5.1 | 36 |
| 09/03 06:00 | 32 | 36 | 96 | 94 | 6 | 10 | 13 | 248 | 0.01 | 0.25 | 5.4 | 36 |
| 09/03 05:00 | 33 | 37 | 97 | 93 | 7 | 9 | 12 | 235 | 0.00 | 0.24 | 5.4 | 37 |
| 09/03 04:00 | 34 | 37 | 98 | 93 | 7 | 10 | 14 | 241 | 0.00 | 0.24 | 5.4 | 38 |
| 09/03 03:00 | 34 | 38 | 96 | 94 | 5 | 8 | 13 | 244 | 0.00 | 0.24 | 5.0 | 38 |
| 09/03 02:00 | 36 | 38 | 91 | 94 | 4 | 8 | 11 | 240 | 0.00 | 0.24 | 5.3 | 39 |
| 09/03 01:00 | 36 | 39 | 87 | 94 | 3 | 6 | 9 | 243 | 0.00 | 0.24 | 5.2 | 39 |
| 09/03 00:00 | 36 | 39 | 93 | 94 | 6 | 8 | 9 | 232 | 0.00 | 0.24 | 5.8 | 40 |
| 09/02 23:00 | 36 | 40 | 97 | 94 | 7 | 10 | 13 | 227 | 0.00 | 0.24 | 5.1 | 40 |
| 09/02 22:00 | 37 | 40 | 97 | 94 | 9 | 12 | 14 | 226 | 0.00 | 0.24 | 5.4 | 41 |
| 09/02 21:00 | 37 | 41 | 97 | 92 | 11 | 15 | 19 | 228 | 0.00 | 0.24 | 5.1 | 42 |
| 09/02 20:00 | 40 | 44 | 88 | 86 | 5 | 11 | 19 | 209 | 0.01 | 0.24 | 5.0 | 44 |
| 09/02 19:00 | 43 | 45 | 76 | 90 | 5 | 11 | 21 | 141 | 0.00 | 0.23 | 4.8 | 46 |
| 09/02 18:00 | 42 | 45 | 81 | 87 | 5 | 15 | 27 | 104 | 0.00 | 0.23 | 5.2 | 46 |
| 09/02 17:00 | 43 | 47 | 75 | 80 | 3 | 12 | 23 | 175 | 0.01 | 0.23 | 4.7 | 48 |
| 09/02 16:00 | 46 | 50 | 68 | 61 | 6 | 16 | 35 | 175 | 0.00 | 0.22 | 4.0 | 52 |
| 09/02 15:00 | 48 | 52 | 63 | 56 | 6 | 15 | 29 | 163 | 0.00 | 0.22 | 4.2 | 55 |
| 09/02 14:00 | 50 | 54 | 61 | 56 | 3 | 10 | 19 | 109 | 0.00 | 0.22 | 4.5 | 61 |
| 09/02 13:00 | 52 | 56 | 51 | 48 | 2 | 7 | 15 | 107 | 0.00 | 0.22 | 2.7 | 67 |
| 09/02 12:00 | 52 | 54 | 65 | 55 | 1 | 5 | 10 | 179 | 0.00 | 0.22 | 4.0 | 62 |
| 09/02 11:00 | 49 | 53 | 72 | 64 | 1 | 4 | 8 | 23 | 0.00 | 0.22 | 4.2 | 58 |
| 09/02 10:00 | 48 | 47 | 73 | 75 | 1 | 5 | 10 | 235 | 0.00 | 0.22 | 4.9 | 47 |
| 09/02 09:00 | 46 | 45 | 73 | 84 | 3 | 9 | 15 | 231 | 0.00 | 0.22 | 5.3 | 44 |
| 09/02 08:00 | 42 | 43 | 81 | 91 | 6 | 13 | 22 | 204 | 0.00 | 0.22 | 5.5 | 43 |
| 09/02 07:00 | 44 | 43 | 77 | 90 | 4 | 12 | 20 | 200 | 0.00 | 0.22 | 5.1 | 44 |
| 09/02 06:00 | 44 | 43 | 76 | 91 | 7 | 12 | 24 | 226 | 0.00 | 0.22 | 4.9 | 44 |
| 09/02 05:00 | 41 | 44 | 97 | 88 | 13 | 16 | 23 | 245 | 0.00 | 0.22 | 5.2 | 45 |
| 09/02 04:00 | 43 | 45 | 91 | 90 | 4 | 9 | 17 | 238 | 0.00 | 0.22 | 5.2 | 45 |
| 09/02 03:00 | 46 | 45 | 76 | 90 | 6 | 9 | 12 | 244 | 0.00 | 0.22 | 5.0 | 45 |
| 09/02 02:00 | 43 | 46 | 96 | 90 | 7 | 13 | 16 | 238 | 0.00 | 0.22 | 4.9 | 46 |
| 09/02 01:00 | 43 | 46 | 96 | 93 | 10 | 12 | 14 | 234 | 0.00 | 0.22 | 5.3 | 46 |
| 09/02 00:00 | 44 | 46 | 97 | 92 | 6 | 10 | 12 | 241 | 0.00 | 0.22 | 4.8 | 46 |
| 09/01 23:00 | 44 | 47 | 95 | 90 | 9 | 13 | 15 | 243 | 0.00 | 0.22 | 4.9 | 47 |
| 09/01 22:00 | 46 | 49 | 91 | 85 | 6 | 12 | 15 | 236 | 0.01 | 0.22 | 4.8 | 50 |
| 09/01 21:00 | 48 | 52 | 89 | 79 | 6 | 11 | 15 | 239 | 0.00 | 0.21 | 5.0 | 53 |
| 09/01 20:00 | 50 | 54 | 82 | 73 | 7 | 9 | 11 | 234 | 0.00 | 0.21 | 4.8 | 56 |
| 09/01 19:00 | 52 | 56 | 75 | 63 | 6 | 8 | 11 | 190 | 0.00 | 0.21 | 4.6 | 59 |
| 09/01 18:00 | 56 | 60 | 61 | 51 | 4 | 9 | 14 | 196 | 0.00 | 0.21 | 4.4 | 67 |
| 09/01 17:00 | 60 | 65 | 40 | 38 | 5 | 9 | 12 | 31 | 0.00 | 0.21 | 4.0 | 76 |
| 09/01 16:00 | 62 | 64 | 33 | 35 | 5 | 9 | 15 | 22 | 0.00 | 0.21 | 3.9 | 72 |
| 09/01 15:00 | 62 | 65 | 34 | 37 | 3 | 10 | 15 | 138 | 0.00 | 0.21 | 3.5 | 75 |
| 09/01 14:00 | 63 | 66 | 33 | 31 | 2 | 7 | 12 | 196 | 0.00 | 0.21 | 2.9 | 81 |
| 09/01 13:00 | 65 | 66 | 33 | 33 | 0 | 4 | 11 | 116 | 0.00 | 0.21 | 218.1 | 81 |
| 09/01 12:00 | 60 | 64 | 43 | 39 | 0 | 2 | 4 | 56 | 0.00 | 0.21 | 3.3 | 74 |
| 09/01 11:00 | 61 | 60 | 41 | 47 | 0 | 3 | 6 | 194 | 0.00 | 0.21 | 3.2 | 66 |
| 09/01 10:00 | 57 | 54 | 40 | 58 | 0 | 2 | 6 | 189 | 0.00 | 0.21 | 4.6 | 53 |
| 09/01 09:00 | 57 | 49 | 47 | 71 | 0 | 1 | 3 | 169 | 0.00 | 0.21 | 4.4 | 47 |
| 09/01 08:00 | 58 | 44 | 43 | 84 | 0 | 2 | 4 | 161 | 0.00 | 0.21 | 5.4 | 42 |
| 09/01 07:00 | 54 | 40 | 43 | 89 | 0 | 1 | 3 | 214 | 0.00 | 0.21 | 5.4 | 40 |
| 09/01 06:00 | 54 | 40 | 42 | 90 | 2 | 5 | 9 | 248 | 0.00 | 0.21 | 5.5 | 39 |
| 09/01 05:00 | 52 | 40 | 46 | 89 | 3 | 6 | 10 | 253 | 0.00 | 0.21 | 5.5 | 39 |
| 09/01 04:00 | 53 | 40 | 49 | 88 | 5 | 8 | 12 | 233 | 0.00 | 0.21 | 5.3 | 40 |
| 09/01 03:00 | 53 | 41 | 52 | 87 | 5 | 7 | 9 | 228 | 0.00 | 0.21 | 5.5 | 40 |
| 09/01 02:00 | 52 | 41 | 53 | 87 | 1 | 7 | 11 | 232 | 0.00 | 0.21 | 5.2 | 41 |
| 09/01 01:00 | 52 | 42 | 56 | 85 | 0 | 3 | 9 | 219 | 0.00 | 0.21 | 5.3 | 42 |
| 09/01 00:00 | 52 | 43 | 57 | 86 | 0 | 3 | 8 | 255 | 0.00 | 0.21 | 5.5 | 42 |
| 08/31 23:00 | 52 | 44 | 58 | 82 | 2 | 5 | 9 | 198 | 0.00 | 0.21 | 5.2 | 43 |
| 08/31 22:00 | 52 | 45 | 60 | 80 | 0 | 1 | 6 | 60 | 0.00 | 0.21 | 5.0 | 45 |
| 08/31 21:00 | 53 | 47 | 62 | 77 | 0 | 2 | 5 | 35 | 0.00 | 0.21 | 5.3 | 47 |
| 08/31 20:00 | 53 | 50 | 60 | 73 | 0 | 0 | 4 | 19 | 0.00 | 0.21 | 5.0 | 51 |
| 08/31 19:00 | 56 | 54 | 55 | 66 | 0 | 0 | 0 | 18 | 0.00 | 0.21 | 4.4 | 57 |
| 08/31 18:00 | 57 | 58 | 54 | 62 | 0 | 0 | 2 | 27 | 0.00 | 0.21 | 4.2 | 64 |
| 08/31 17:00 | 60 | 62 | 46 | 46 | 0 | 5 | 11 | 175 | 0.00 | 0.21 | 4.0 | 79 |
| 08/31 16:00 | 60 | 61 | 50 | 47 | 4 | 8 | 11 | 175 | 0.00 | 0.21 | 2.9 | 74 |
| 08/31 15:00 | 58 | 58 | 51 | 58 | 2 | 7 | 10 | 46 | 0.00 | 0.21 | 4.4 | 65 |
| 08/31 14:00 | 59 | 59 | 51 | 52 | 0 | 5 | 9 | 151 | 0.00 | 0.21 | 4.0 | 68 |
| 08/31 13:00 | 55 | 61 | 59 | 49 | 0 | 3 | 7 | 40 | 0.00 | 0.21 | 2.0 | 74 |
| 08/31 12:00 | 53 | 57 | 63 | 55 | 0 | 3 | 8 | 37 | 0.00 | 0.21 | 3.6 | 65 |
| 08/31 11:00 | 48 | 51 | 73 | 68 | 0 | 5 | 10 | 17 | 0.00 | 0.21 | 4.3 | 57 |
| 08/31 10:00 | 47 | 46 | 74 | 79 | 0 | 2 | 6 | 23 | 0.00 | 0.21 | 3.4 | 45 |
| 08/31 09:00 | 49 | 42 | 70 | 93 | 0 | 0 | 2 | 31 | 0.00 | 0.21 | 3.0 | 42 |
| 08/31 08:00 | 46 | 40 | 76 | 96 | 0 | 0 | 3 | 175 | 0.00 | 0.21 | 4.7 | 39 |
| 08/31 07:00 | 43 | 37 | 83 | 96 | 0 | 1 | 3 | 166 | 0.00 | 0.21 | 4.8 | 37 |
| 08/31 06:00 | 44 | 37 | 78 | 94 | 0 | 0 | 0 | 80 | 0.00 | 0.21 | 4.8 | 37 |
| 08/31 05:00 | 44 | 37 | 79 | 94 | 0 | 1 | 2 | 218 | 0.00 | 0.21 | 5.0 | 37 |
| 08/31 04:00 | 45 | 37 | 76 | 94 | 0 | 3 | 6 | 224 | 0.00 | 0.21 | 5.0 | 37 |
| 08/31 03:00 | 44 | 37 | 77 | 93 | 0 | 3 | 5 | 203 | 0.00 | 0.21 | 5.4 | 37 |
| 08/31 02:00 | 45 | 37 | 74 | 93 | 0 | 2 | 5 | 212 | 0.00 | 0.21 | 5.2 | 36 |
| 08/31 01:00 | 45 | 37 | 75 | 91 | 0 | 0 | 2 | 176 | 0.00 | 0.21 | 5.3 | 37 |
| 08/31 00:00 | 46 | 38 | 71 | 90 | 0 | 0 | 0 | 89 | 0.00 | 0.21 | 5.4 | 38 |
| 08/30 23:00 | 46 | 41 | 67 | 87 | 0 | 0 | 0 | 86 | 0.00 | 0.21 | 5.3 | 40 |
| 08/30 22:00 | 46 | 41 | 72 | 86 | 0 | 5 | 9 | 265 | 0.00 | 0.21 | 5.1 | 41 |
| 08/30 21:00 | 43 | 43 | 82 | 84 | 0 | 4 | 8 | 250 | 0.02 | 0.21 | 5.0 | 43 |
| 08/30 20:00 | 43 | 45 | 85 | 80 | 0 | 1 | 4 | 183 | 0.00 | 0.19 | 5.2 | 46 |
| 08/30 19:00 | 45 | 48 | 77 | 69 | 0 | 6 | 13 | 328 | 0.01 | 0.19 | 4.9 | 50 |
| 08/30 18:00 | 48 | 50 | 72 | 65 | 0 | 4 | 9 | 211 | 0.00 | 0.18 | 4.5 | 57 |
| 08/30 17:00 | 48 | 54 | 72 | 59 | 1 | 4 | 9 | 188 | 0.02 | 0.18 | 4.0 | 70 |
| 08/30 16:00 | 51 | 55 | 65 | 57 | 2 | 5 | 9 | 121 | 0.02 | 0.16 | 2.4 | 69 |
| 08/30 15:00 | 48 | 53 | 68 | 60 | 1 | 5 | 13 | 185 | 0.02 | 0.14 | 3.8 | 63 |
| 08/30 14:00 | 49 | 55 | 66 | 56 | 2 | 8 | 14 | 243 | 0.01 | 0.12 | 1.3 | 70 |
| 08/30 13:00 | 46 | 52 | 69 | 59 | 3 | 6 | 13 | 54 | 0.00 | 0.11 | 2.4 | 67 |
| 08/30 12:00 | 44 | 46 | 72 | 64 | 1 | 5 | 11 | 242 | 0.00 | 0.11 | 3.6 | 56 |
| 08/30 11:00 | 42 | 46 | 73 | 65 | 1 | 4 | 9 | 244 | 0.00 | 0.11 | 3.9 | 54 |
| 08/30 10:00 | 39 | 43 | 83 | 77 | 1 | 4 | 9 | 247 | 0.01 | 0.11 | 2.4 | 46 |
| 08/30 09:00 | 38 | 42 | 89 | 84 | 0 | 2 | 7 | 317 | 0.00 | 0.10 | 2.4 | 44 |
| 08/30 08:00 | 38 | 38 | 87 | 94 | 0 | 1 | 3 | 339 | 0.00 | 0.10 | 2.8 | 39 |
| 08/30 07:00 | 36 | 36 | 91 | 94 | 0 | 4 | 10 | 235 | 0.00 | 0.10 | 2.6 | 36 |
| 08/30 06:00 | 35 | 36 | 93 | 93 | 1 | 5 | 10 | 238 | 0.01 | 0.10 | 2.6 | 36 |
| 08/30 05:00 | 35 | 35 | 91 | 93 | 2 | 5 | 11 | 265 | 0.00 | 0.09 | 2.7 | 35 |
| 08/30 04:00 | 35 | 36 | 88 | 90 | 0 | 3 | 9 | 233 | 0.00 | 0.09 | 2.7 | 37 |
| 08/30 03:00 | 35 | 36 | 91 | 92 | 1 | 9 | 19 | 238 | 0.01 | 0.09 | 2.7 | 37 |
| 08/30 02:00 | 35 | 37 | 93 | 91 | 5 | 11 | 17 | 237 | 0.00 | 0.08 | 2.9 | 37 |
| 08/30 01:00 | 35 | 37 | 92 | 91 | 4 | 9 | 19 | 230 | 0.00 | 0.08 | 2.8 | 37 |
| 08/30 00:00 | 36 | 37 | 87 | 92 | 6 | 13 | 16 | 248 | 0.00 | 0.08 | 2.7 | 37 |
| 08/29 23:00 | 34 | 38 | 94 | 90 | 2 | 8 | 14 | 243 | 0.01 | 0.08 | 2.5 | 38 |
| 08/29 22:00 | 35 | 38 | 90 | 85 | 3 | 7 | 12 | 249 | 0.00 | 0.07 | 2.7 | 39 |
| 08/29 21:00 | 36 | 39 | 94 | 87 | 2 | 6 | 11 | 243 | 0.01 | 0.07 | 2.8 | 39 |
| 08/29 20:00 | 35 | 39 | 95 | 91 | 1 | 6 | 11 | 242 | 0.01 | 0.06 | 2.8 | 40 |
| 08/29 19:00 | 36 | 40 | 92 | 91 | 1 | 5 | 9 | 245 | 0.01 | 0.05 | 2.8 | 42 |
| 08/29 18:00 | 37 | 40 | 93 | 89 | 2 | 6 | 11 | 225 | 0.01 | 0.04 | 3.1 | 44 |
| 08/29 17:00 | 37 | 40 | 98 | 94 | 3 | 7 | 17 | 239 | 0.01 | 0.03 | 3.3 | 43 |
| 08/29 16:00 | 37 | 40 | 98 | 93 | 3 | 7 | 13 | 235 | 0.01 | 0.02 | 2.5 | 43 |
| 08/29 15:00 | 37 | 41 | 96 | 90 | 2 | 6 | 12 | 227 | 0.00 | 0.01 | 2.2 | 45 |
| 08/29 14:00 | 37 | 41 | 97 | 90 | 0 | 4 | 10 | 242 | 0.00 | 0.01 | 2.3 | 44 |
| 08/29 13:00 | 37 | 41 | 91 | 89 | 0 | 3 | 10 | 204 | 0.01 | 0.01 | 3.4 | 43 |
| 08/29 12:00 | 38 | 42 | 89 | 74 | 0 | 2 | 5 | 231 | 0.00 | 0.00 | 2.7 | 44 |
| 08/29 11:00 | 38 | 42 | 87 | 78 | 0 | 2 | 7 | 95 | 0.00 | 0.00 | 1.1 | 44 |
| 08/29 10:00 | 38 | 41 | 92 | 80 | 0 | 2 | 8 | 74 | 0.00 | 0.00 | 1.5 | 42 |
| 08/29 09:00 | 38 | 42 | 88 | 79 | 0 | 2 | 8 | 61 | 0.00 | 0.00 | 2.0 | 43 |
| 08/29 08:00 | 37 | 41 | 94 | 79 | 0 | 2 | 6 | 81 | 0.00 | 0.00 | 2.0 | 41 |
| 08/29 07:00 | 38 | 41 | 95 | 87 | 0 | 5 | 14 | 279 | 0.00 | 0.00 | 2.0 | 41 |
| 08/29 06:00 | 38 | 41 | 91 | 93 | 5 | 10 | 19 | 244 | 0.00 | 0.00 | 2.3 | 42 |
| 08/29 05:00 | 39 | 43 | 93 | 86 | 4 | 8 | 12 | 245 | 0.00 | 0.00 | 3.1 | 43 |
| 08/29 04:00 | 40 | 42 | 89 | 86 | 0 | 4 | 11 | 251 | 0.00 | 0.00 | 2.9 | 43 |
| 08/29 03:00 | 40 | 43 | 93 | 85 | 4 | 6 | 8 | 241 | 0.00 | 0.00 | 3.0 | 43 |
| 08/29 02:00 | 40 | 43 | 92 | 85 | 6 | 10 | 14 | 241 | 0.00 | 0.00 | 3.0 | 43 |
| 08/29 01:00 | 40 | 43 | 93 | 84 | 11 | 14 | 17 | 236 | 0.00 | 0.00 | 2.8 | 43 |
| 08/29 00:00 | 41 | 43 | 91 | 85 | 6 | 13 | 17 | 238 | 0.00 | 0.00 | 3.3 | 42 |
| 08/28 23:00 | 41 | 42 | 86 | 83 | 5 | 8 | 10 | 237 | 0.00 | 0.00 | 2.7 | 42 |
| 08/28 22:00 | 43 | 42 | 83 | 81 | 4 | 6 | 8 | 223 | 0.00 | 0.00 | 4.8 | 43 |
| 08/28 21:00 | 44 | 45 | 77 | 74 | 3 | 6 | 9 | 248 | 0.00 | 0.00 | 4.7 | 45 |
| 08/28 20:00 | 46 | 48 | 71 | 64 | 4 | 7 | 10 | 227 | 0.00 | 0.00 | 4.7 | 50 |
| 08/28 19:00 | 48 | 52 | 62 | 54 | 6 | 9 | 12 | 219 | 0.00 | 0.00 | 4.7 | 55 |
| 08/28 18:00 | 53 | 56 | 49 | 46 | 7 | 10 | 12 | 218 | 0.00 | 0.00 | 4.6 | 61 |
| 08/28 17:00 | 55 | 59 | 47 | 41 | 7 | 11 | 14 | 218 | 0.00 | 0.00 | 4.1 | 78 |
| 08/28 16:00 | 57 | 60 | 44 | 41 | 11 | 13 | 16 | 216 | 0.00 | 0.00 | 3.0 | 81 |
| 08/28 15:00 | 56 | 61 | 43 | 38 | 9 | 13 | 16 | 217 | 0.00 | 0.00 | 3.0 | 81 |
| 08/28 14:00 | 56 | 59 | 42 | 39 | 5 | 11 | 17 | 214 | 0.00 | 0.00 | 2.9 | 79 |
| 08/28 13:00 | 53 | 59 | 51 | 42 | 6 | 10 | 14 | 220 | 0.00 | 0.00 | 3.0 | 75 |
| 08/28 12:00 | 52 | 53 | 53 | 54 | 4 | 10 | 15 | 208 | 0.00 | 0.00 | 3.4 | 60 |
| 08/28 11:00 | 50 | 51 | 61 | 56 | 4 | 9 | 14 | 221 | 0.00 | 0.00 | 4.1 | 62 |
| 08/28 10:00 | 48 | 48 | 67 | 66 | 4 | 7 | 11 | 216 | 0.00 | 0.00 | 4.0 | 50 |
| 08/28 09:00 | 45 | 46 | 77 | 77 | 3 | 5 | 7 | 226 | 0.00 | 0.00 | 2.9 | 47 |
| 08/28 08:00 | 41 | 40 | 87 | 93 | 4 | 8 | 11 | 245 | 0.00 | 0.00 | 4.6 | 40 |
| 08/28 07:00 | 40 | 38 | 91 | 93 | 5 | 9 | 11 | 248 | 0.00 | 0.00 | 4.4 | 38 |
| 08/28 06:00 | 40 | 38 | 83 | 91 | 2 | 6 | 8 | 257 | 0.00 | 0.00 | 4.5 | 38 |
| 08/28 05:00 | 41 | 40 | 81 | 89 | 1 | 3 | 7 | 301 | 0.00 | 0.00 | 4.6 | 40 |
| 08/28 04:00 | 42 | 43 | 83 | 86 | 2 | 7 | 9 | 242 | 0.00 | 0.00 | 4.1 | 42 |
| 08/28 03:00 | 41 | 42 | 87 | 89 | 3 | 6 | 11 | 234 | 0.00 | 0.00 | 4.7 | 41 |
| 08/28 02:00 | 41 | 39 | 86 | 87 | 0 | 5 | 11 | 219 | 0.00 | 0.00 | 4.7 | 38 |
| 08/28 01:00 | 43 | 41 | 79 | 88 | 1 | 5 | 11 | 233 | 0.00 | 0.00 | 4.8 | 39 |
| 08/28 00:00 | 42 | 40 | 82 | 83 | 3 | 6 | 9 | 250 | 0.00 | 0.00 | 4.5 | 40 |
| 08/27 23:00 | 42 | 40 | 82 | 80 | 1 | 5 | 9 | 256 | 0.00 | 0.00 | 4.9 | 41 |
| 08/27 22:00 | 43 | 43 | 79 | 77 | 0 | 3 | 6 | 279 | 0.00 | 0.00 | 4.7 | 43 |
| 08/27 21:00 | 43 | 47 | 78 | 68 | 2 | 5 | 8 | 245 | 0.00 | 0.00 | 4.7 | 47 |
| 08/27 20:00 | 44 | 48 | 76 | 66 | 2 | 6 | 9 | 234 | 0.00 | 0.00 | 5.0 | 49 |
| 08/27 19:00 | 46 | 50 | 73 | 61 | 5 | 8 | 11 | 226 | 0.00 | 0.00 | 4.7 | 53 |
| 08/27 18:00 | 47 | 52 | 69 | 60 | 5 | 8 | 14 | 155 | 0.00 | 0.00 | 4.5 | 56 |

